sat.trackr.live / text

‹ back to catalog

STARLINK-2106

NORAD 47386 · 2021-005AP

PAYLOAD ACTIVE UNKNOWN

§ Identity

Operator
Country
US
Launch date
2021-01-20
Launch site
AFETR
Launch vehicle
Mass (kg)
RCS (m²)

Purposes: comms

External: N2YO · Heavens-Above · Gunter

§ Orbital elements

Epoch: 2026-05-25T00:14:53.896128Z

Period
94.11 min
Inclination
53.1591°
Eccentricity
0.0001168
Mean motion
15.30193500 rev/d
Perigee alt
474.4 km
Apogee alt
476.0 km
Semi-major
6,853.4 km
B*
8.5846e-5
RAAN
42.1911°
Arg perigee
94.7834°
Mean anomaly
265.3300°
Rev number
29,507

§ Raw data

STARLINK-21061 47386U 21005AP  26145.01034602  .00002184  00000+0  85846-4 0  99992 47386  53.1591  42.1911 0001168  94.7834 265.3300 15.30193500295072

JSON: /api/v1/satellites/47386 · /tle

For live sub-satellite position, see the globe view (requires WebGL).

§ Visibility from observer

Set your observer location to see the next 7 days of passes ≥ 10°. The values pass through the URL so the page stays shareable.

No JS? Fill the form by hand. The geolocation button needs JavaScript.